Location: Newark
(37.6333°N, 5.2500°W)
Time: 17:12:21
(UTC+00:00)

Envisat - Visible Passes

Search period start: 22 October 2019 00:00
Search period end: 01 November 2019 00:00
Orbit: 764 x 766 km, 98.1° (Epoch: 22 October)

Date Brightness Start Highest point End Pass type
(mag) Time Alt. Az. Time Alt. Az. Time Alt. Az.
22 Oct 3.4 17:55:38 10° SE 18:00:23 42° ENE 18:05:10 10° N visible
22 Oct 5.6 19:35:54 10° SW 19:39:34 20° W 19:43:15 10° NW visible
23 Oct 6.2 06:07:31 10° NE 06:10:47 17° E 06:14:02 10° SE visible
23 Oct 4.1 18:57:44 10° S 19:02:35 46° W 19:07:28 10° NNW visible
24 Oct 2.9 18:20:44 10° SSE 18:25:48 77° ENE 18:30:53 10° N visible
24 Oct 6.3 20:04:24 10° W 20:05:20 10° W 20:06:15 10° W visible
25 Oct 5.2 19:24:03 10° SSW 19:28:13 25° W 19:32:24 10° NW visible
26 Oct 6.4 05:57:05 10° ENE 05:59:24 13° E 06:01:43 10° ESE visible
26 Oct 3.6 18:46:18 10° S 18:51:18 59° W 18:56:19 10° NNW visible
27 Oct 3.0 18:09:35 10° SSE 18:14:33 60° ENE 18:19:34 10° N visible
27 Oct 6.0 19:51:21 10° WSW 19:53:56 14° W 19:56:33 10° WNW visible
28 Oct 4.8 19:12:22 10° SSW 19:16:53 32° W 19:21:26 10° NNW visible
29 Oct 3.2 18:34:58 10° S 18:40:01 76° WSW 18:45:07 10° NNW visible
30 Oct 3.2 17:58:31 10° SE 18:03:21 47° ENE 18:08:12 10° N visible
30 Oct 5.7 19:39:08 10° SW 19:42:34 18° W 19:46:00 10° NW visible
31 Oct 6.0 06:10:15 10° NE 06:13:47 19° E 06:17:18 10° SE visible
31 Oct 4.3 19:00:48 10° S 19:05:33 41° W 19:10:22 10° NNW visible
